Time,TemperatureF,DewpointF,PressureIn,WindDirection,WindDirectionDegrees,WindSpeedMPH,WindSpeedGustMPH,Humidity,HourlyPrecipIn,Conditions,Clouds,dailyrainin,SoftwareType,DateUTC
2013-01-03 00:00:00,15.4,10.7,29.85,SSW,202,0.0,3.9,81,0.00,,SKC,0.00,VWS V14.01,2013-01-03 06:00:00,
2013-01-03 00:20:00,15.4,10.7,29.85,SSW,202,0.0,5.1,81,0.00,,SKC,0.00,VWS V14.01,2013-01-03 06:20:00,
2013-01-03 00:40:00,15.3,10.8,29.85,SSW,202,1.5,5.1,82,0.00,,SKC,0.00,VWS V14.01,2013-01-03 06:40:00,
2013-01-03 01:00:00,15.3,10.8,29.85,SSW,202,1.0,5.9,82,0.00,,SKC,0.00,VWS V14.01,2013-01-03 07:00:00,
2013-01-03 01:20:00,15.4,11.2,29.85,SSW,202,1.8,3.9,83,0.00,,SKC,0.00,VWS V14.01,2013-01-03 07:20:00,
2013-01-03 01:40:00,15.4,11.5,29.85,SSW,202,0.0,4.3,84,0.00,,SKC,0.00,VWS V14.01,2013-01-03 07:40:00,
2013-01-03 02:00:00,15.6,11.7,29.85,SSW,202,0.0,5.1,84,0.00,,SKC,0.00,VWS V14.01,2013-01-03 08:00:00,
2013-01-03 02:20:00,15.8,12.1,29.85,SSW,202,1.8,3.5,85,0.00,,SKC,0.00,VWS V14.01,2013-01-03 08:20:00,
2013-01-03 02:40:00,15.8,12.1,29.85,SSW,202,1.0,3.9,85,0.00,,SKC,0.00,VWS V14.01,2013-01-03 08:40:00,
2013-01-03 03:00:00,16.0,12.3,29.85,SW,225,2.8,5.9,85,0.00,,SKC,0.00,VWS V14.01,2013-01-03 09:00:00,
2013-01-03 03:20:00,16.2,12.4,29.85,WSW,248,1.5,5.1,85,0.00,,SKC,0.00,VWS V14.01,2013-01-03 09:20:00,
2013-01-03 03:40:00,16.2,12.7,29.85,SSW,202,2.3,4.7,86,0.00,,SKC,0.00,VWS V14.01,2013-01-03 09:40:00,
2013-01-03 04:00:00,16.3,13.2,29.88,SSW,202,0.0,3.9,87,0.00,,SKC,0.00,VWS V14.01,2013-01-03 10:00:00,
2013-01-03 04:20:00,16.5,13.3,29.88,SSW,202,0.0,5.1,87,0.00,,SKC,0.00,VWS V14.01,2013-01-03 10:20:00,
2013-01-03 04:40:00,16.7,13.5,29.88,WSW,248,0.0,4.7,87,0.00,,SKC,0.00,VWS V14.01,2013-01-03 10:40:00,
2013-01-03 05:00:00,17.1,14.1,29.88,SSW,202,0.0,3.9,88,0.00,,SKC,0.00,VWS V14.01,2013-01-03 11:00:00,
2013-01-03 05:20:00,17.1,14.1,29.88,SW,225,0.0,5.5,88,0.00,,SKC,0.00,VWS V14.01,2013-01-03 11:20:00,
2013-01-03 05:40:00,17.2,14.3,29.91,South,180,0.0,4.3,88,0.00,,SKC,0.00,VWS V14.01,2013-01-03 11:40:00,
2013-01-03 06:00:00,17.6,14.9,29.91,SSW,202,2.3,3.9,89,0.00,,SKC,0.00,VWS V14.01,2013-01-03 12:00:00,
2013-01-03 06:20:00,17.8,15.1,29.91,SSW,202,1.8,3.9,89,0.00,,SKC,0.00,VWS V14.01,2013-01-03 12:20:00,
2013-01-03 06:40:00,18.1,15.4,29.91,WNW,292,1.8,5.5,89,0.00,,SKC,0.00,VWS V14.01,2013-01-03 12:40:00,
2013-01-03 07:00:00,18.3,15.9,29.91,SSW,202,0.0,6.7,90,0.00,,SKC,0.00,VWS V14.01,2013-01-03 13:00:00,
2013-01-03 07:20:00,18.3,15.9,29.94,SSW,202,1.5,6.7,90,0.00,,SKC,0.00,VWS V14.01,2013-01-03 13:20:00,
2013-01-03 07:40:00,18.5,16.1,29.94,SW,225,1.8,5.5,90,0.00,,SKC,0.00,VWS V14.01,2013-01-03 13:40:00,
2013-01-03 08:00:00,18.7,16.2,29.94,WSW,248,0.0,6.7,90,0.00,,SKC,0.00,VWS V14.01,2013-01-03 14:00:00,
2013-01-03 08:20:00,18.7,16.0,29.94,West,270,2.6,9.8,89,0.00,,SKC,0.00,VWS V14.01,2013-01-03 14:20:00,
2013-01-03 08:40:00,18.5,15.6,29.94,WSW,248,1.8,7.0,88,0.00,,SKC,0.00,VWS V14.01,2013-01-03 14:40:00,
2013-01-03 09:00:00,18.3,14.6,29.94,West,270,1.5,7.0,85,0.00,,SKC,0.00,VWS V14.01,2013-01-03 15:00:00,
2013-01-03 09:20:00,18.5,14.5,29.94,SSW,202,1.3,8.2,84,0.00,,SKC,0.00,VWS V14.01,2013-01-03 15:20:00,
2013-01-03 09:40:00,18.7,14.7,29.97,SSW,202,0.0,6.7,84,0.00,,SKC,0.00,VWS V14.01,2013-01-03 15:40:00,
2013-01-03 10:00:00,18.5,13.6,29.97,WNW,292,3.9,11.0,81,0.00,,SKC,0.00,VWS V14.01,2013-01-03 16:00:00,
2013-01-03 10:20:00,18.3,12.3,29.97,WSW,248,2.8,9.8,77,0.00,,SKC,0.00,VWS V14.01,2013-01-03 16:20:00,
2013-01-03 10:40:00,18.1,11.6,30.00,SSW,202,1.5,11.0,75,0.00,,SKC,0.00,VWS V14.01,2013-01-03 16:40:00,
2013-01-03 11:00:00,17.6,10.1,29.97,SSW,202,2.3,7.8,72,0.00,,SKC,0.00,VWS V14.01,2013-01-03 17:00:00,
2013-01-03 11:20:00,18.7,11.2,29.97,SSW,202,1.0,11.4,72,0.00,,SKC,0.00,VWS V14.01,2013-01-03 17:20:00,
2013-01-03 11:40:00,18.5,10.0,29.97,WNW,292,3.3,9.8,69,0.00,,SKC,0.00,VWS V14.01,2013-01-03 17:40:00,
2013-01-03 12:00:00,19.8,11.9,29.97,SSW,202,3.1,6.7,71,0.00,,SKC,0.00,VWS V14.01,2013-01-03 18:00:00,
2013-01-03 12:20:00,20.3,12.1,29.94,NW,315,4.4,7.4,70,0.00,,SKC,0.00,VWS V14.01,2013-01-03 18:20:00,
2013-01-03 12:40:00,21.2,12.3,29.94,SSW,202,2.8,12.9,68,0.00,,SKC,0.00,VWS V14.01,2013-01-03 18:40:00,
2013-01-03 13:00:00,21.6,12.0,29.94,West,270,3.9,8.2,66,0.00,,SKC,0.00,VWS V14.01,2013-01-03 19:00:00,
2013-01-03 14:00:00,21.7,10.4,29.91,SSW,202,4.4,11.7,61,0.00,,SKC,0.00,VWS V14.01,2013-01-03 20:00:00,
2013-01-03 14:20:00,21.6,9.1,29.91,SSW,202,6.9,11.0,58,0.00,,SKC,0.00,VWS V14.01,2013-01-03 20:20:00,
2013-01-03 14:40:00,21.6,9.5,29.91,West,270,4.1,13.3,59,0.00,,SKC,0.00,VWS V14.01,2013-01-03 20:40:00,
2013-01-03 15:00:00,20.8,9.5,29.91,SSE,158,3.6,18.0,61,0.00,,SKC,0.00,VWS V14.01,2013-01-03 21:00:00,
2013-01-03 15:20:00,20.3,8.6,29.94,WSW,248,3.1,15.3,60,0.00,,SKC,0.00,VWS V14.01,2013-01-03 21:20:00,
2013-01-03 15:40:00,20.1,8.5,29.91,SSW,202,1.3,12.9,60,0.00,,SKC,0.00,VWS V14.01,2013-01-03 21:40:00,
2013-01-03 16:00:00,19.6,8.7,29.91,WSW,248,8.2,14.9,62,0.00,,SKC,0.00,VWS V14.01,2013-01-03 22:00:00,
2013-01-03 16:20:00,18.5,7.7,29.91,SSW,202,3.6,14.9,62,0.00,,SKC,0.00,VWS V14.01,2013-01-03 22:20:00,
2013-01-03 16:40:00,17.6,7.5,29.91,WSW,248,4.4,16.8,64,0.00,,SKC,0.00,VWS V14.01,2013-01-03 22:40:00,
2013-01-03 17:00:00,16.7,6.3,29.94,SSW,202,10.0,15.3,63,0.00,,SKC,0.00,VWS V14.01,2013-01-03 23:00:00,
2013-01-03 17:20:00,16.0,6.0,29.91,WSW,248,4.6,15.3,64,0.00,,SKC,0.00,VWS V14.01,2013-01-03 23:20:00,
2013-01-03 17:40:00,15.4,5.8,29.91,SW,225,4.1,10.2,65,0.00,,SKC,0.00,VWS V14.01,2013-01-03 23:40:00,
2013-01-03 18:00:00,15.1,6.1,29.91,SSE,158,6.2,16.4,67,0.00,,SKC,0.00,VWS V14.01,2013-01-04 00:00:00,
2013-01-03 18:20:00,14.4,4.4,29.88,SSW,202,3.9,15.3,64,0.00,,SKC,0.00,VWS V14.01,2013-01-04 00:20:00,
2013-01-03 18:40:00,13.8,3.9,29.88,SW,225,5.7,19.2,64,0.00,,SKC,0.00,VWS V14.01,2013-01-04 00:40:00,
2013-01-03 19:00:00,13.1,3.2,29.88,WSW,248,5.4,11.4,64,0.00,,SKC,0.00,VWS V14.01,2013-01-04 01:00:00,
2013-01-03 19:20:00,12.6,2.7,29.88,SSW,202,5.7,21.1,64,0.00,,SKC,0.00,VWS V14.01,2013-01-04 01:20:00,
2013-01-03 19:40:00,12.0,2.2,29.88,SSW,202,2.3,13.7,64,0.00,,SKC,0.00,VWS V14.01,2013-01-04 01:40:00,
2013-01-03 20:00:00,11.8,2.0,29.88,WSW,248,3.9,10.6,64,0.00,,SKC,0.00,VWS V14.01,2013-01-04 02:00:00,
2013-01-03 20:20:00,11.3,1.5,29.88,WNW,292,4.4,18.0,64,0.00,,SKC,0.00,VWS V14.01,2013-01-04 02:20:00,
2013-01-03 20:40:00,10.9,1.2,29.88,SSW,202,2.8,16.8,64,0.00,,SKC,0.00,VWS V14.01,2013-01-04 02:40:00,
2013-01-03 21:00:00,10.9,1.2,29.85,South,180,5.4,15.3,64,0.00,,SKC,0.00,VWS V14.01,2013-01-04 03:00:00,
2013-01-03 21:20:00,10.9,1.2,29.85,SSW,202,2.8,15.3,64,0.00,,SKC,0.00,VWS V14.01,2013-01-04 03:20:00,
2013-01-03 21:40:00,10.9,1.2,29.85,West,270,5.7,14.9,64,0.00,,SKC,0.00,VWS V14.01,2013-01-04 03:40:00,
2013-01-03 22:00:00,10.9,1.2,29.82,WNW,292,4.1,16.8,64,0.00,,SKC,0.00,VWS V14.01,2013-01-04 04:00:00,
2013-01-03 22:20:00,11.1,1.3,29.82,WSW,248,2.3,16.1,64,0.00,,SKC,0.00,VWS V14.01,2013-01-04 04:20:00,
2013-01-03 22:40:00,11.1,1.3,29.82,WNW,292,3.1,16.4,64,0.00,,SKC,0.00,VWS V14.01,2013-01-04 04:40:00,
2013-01-03 23:00:00,11.1,1.3,29.79,SSW,202,1.8,19.2,64,0.00,,SKC,0.00,VWS V14.01,2013-01-04 05:00:00,
2013-01-03 23:20:00,11.5,1.7,29.79,SSW,202,2.3,18.0,64,0.00,,SKC,0.00,VWS V14.01,2013-01-04 05:20:00,
2013-01-03 23:40:00,11.8,2.0,29.79,WNW,292,5.7,18.8,64,0.00,,SKC,0.00,VWS V14.01,2013-01-04 05:40:00,